sat.trackr.live / text

‹ back to catalog

STARLINK-35678

NORAD 66971 · 2025-288N

PAYLOAD ACTIVE UNKNOWN

§ Identity

Operator
Country
US
Launch date
2025-12-08
Launch site
AFETR
Launch vehicle
Mass (kg)
RCS (m²)

Purposes: comms

External: N2YO · Heavens-Above · Gunter

§ Orbital elements

Epoch: 2026-09-20T07:40:30.501408Z

Period
94.27 min
Inclination
42.9990°
Eccentricity
0.0000738
Mean motion
15.27582686 rev/d
Perigee alt
482.5 km
Apogee alt
483.5 km
Semi-major
6,861.2 km
B*
2.3766e-4
RAAN
4.2739°
Arg perigee
283.9542°
Mean anomaly
76.1228°
Rev number
4,505

§ Raw data

STARLINK-356781 66971U 25288N   26263.31979747  .00006284  00000+0  23766-3 0  99962 66971  42.9990   4.2739 0000738 283.9542  76.1228 15.27582686 45050

JSON: /api/v1/satellites/66971 · /tle

For live sub-satellite position, see the globe view (requires WebGL).

§ Visibility from observer

Set your observer location to see the next 7 days of passes ≥ 10°. The values pass through the URL so the page stays shareable.

No JS? Fill the form by hand. The geolocation button needs JavaScript.